Flag for Sint Maarten

Past Weather in Philipsburg, Sint Maarten — Yesterday and Last 2 Weeks

Now
82 °F

Passing clouds.


Feels Like: 87 °F
Forecast: 87 / 81 °F
Wind: 12 mph from East

Location: Juliana Airport - Saint Maarten
Current Time: Oct 27, 2020 at 6:22:10 am
Latest Report: Oct 27, 2020 at 6:00 am
Visibility: N/A
Pressure29.95 "Hg
Humidity: 70%
Dew Point: 72 °F
Location of PhilipsburgLocation

Past Weather in Philipsburg — Graph

°F

Philipsburg Temperature Yesterday

Maximum temperature yesterday: 86 °F (at 8:00 am)
Minimum temperature yesterday: 81 °F (at 6:00 am)
Average temperature yesterday: 83 °F

High & Low Weather Summary for the Past Weeks

 TemperatureHumidityPressure
High90 °F (Oct 12, 12:00 pm)100% (Oct 17, 5:00 am)30.07 "Hg (Oct 17, 5:00 am)
Low75 °F (Oct 13, 11:11 pm)62% (Oct 21, 3:00 pm)29.80 "Hg (Oct 19, 2:00 pm)
Average83 °F78%29.95 "Hg
* Reported Oct 12 5:00 am — Oct 27 5:00 am, Philipsburg. Weather by CustomWeather, © 2020

Note: Actual official high and low records may vary slightly from our data, if they occured in-between our weather recording intervals... More about our weather records

Philipsburg Weather History for the Previous 24 Hours

Scroll right to see more
 ConditionsComfort  
Time TempWeatherWind HumidityBarometerVisibility
5:00 am
Tue, Oct 27
82 °FPassing clouds.12 mph70%29.92 "HgN/A
4:00 am82 °FPassing clouds.15 mph74%29.92 "HgN/A
3:00 am82 °FPassing clouds.13 mph79%29.92 "HgN/A
2:00 am82 °FPassing clouds.10 mph79%29.95 "HgN/A
1:00 am82 °FPassing clouds.12 mph79%29.98 "HgN/A
12:00 am82 °FPassing clouds.14 mph79%29.98 "HgN/A
11:00 pm
Mon, Oct 26
82 °FThundershowers. Overcast.14 mph79%29.98 "HgN/A
10:00 pm82 °FPassing clouds.15 mph84%29.98 "HgN/A
9:00 pm82 °FPassing clouds.9 mph89%29.98 "HgN/A
8:00 pm81 °FPassing clouds.10 mph84%29.98 "HgN/A
7:00 pm82 °FPassing clouds.15 mph84%29.95 "HgN/A
6:00 pm82 °FPassing clouds.12 mph79%29.92 "HgN/A
5:00 pm82 °FPassing clouds.10 mph84%29.95 "HgN/A
4:00 pm86 °FSprinkles. Partly sunny.14 mph70%29.95 "HgN/A
3:00 pm86 °FScattered clouds.16 mph70%29.95 "HgN/A
2:00 pm86 °FPassing clouds.15 mph75%29.95 "HgN/A
1:00 pm86 °FPartly sunny.15 mph70%29.98 "HgN/A
12:00 pm86 °FScattered clouds.12 mph70%29.98 "HgN/A
11:00 am86 °FPartly sunny.14 mph70%30.01 "HgN/A
10:00 am86 °FPartly sunny.15 mph66%30.04 "HgN/A
8:00 am86 °FPassing clouds.13 mph62%30.01 "HgN/A
7:00 am82 °FPassing clouds.12 mph74%29.98 "HgN/A
6:00 am81 °FPassing clouds.12 mph79%29.98 "HgN/A
Weather by CustomWeather, © 2020

See weather overview